Location: *
(58.7167°N, 26.1833°E)
Time: 06:34:17
(UTC+00:00)

Cosmos 2333 Rocket - Pass Details

Date: 25 August 2019
Orbit: 842 x 860 km, 70.8° (Epoch: 14 September)

Event Time Altitude Azimuth Distance (km) Brightness Sun altitude
Rises 22:40:12 0° 321° (NW) 3,413 6.0 -20.5°
Reaches altitude 10° 22:42:52 10° 312° (NW) 2,476 5.1 -20.5°
Maximum altitude 22:47:50 33° 251° (WSW) 1,407 3.1 -20.4°
Enters shadow 22:48:52 30° 230° (SW) 1,468 3.0 -20.4°
